Showing default

IRIDIUM 128, 42811

Orbit data source: Space-Track

IRIDIUM 128, 42811 is a payload satellite owned by Iridium (US) in LEO that was launched on Sun, 25 Jun 2017 UTC via an FALCON 9 launch vehicle from the Air Force Western Test Range (AFWTR). Payload-class satellites include a variety of spacecraft equipped with specific instruments for various scientific and technological missions. These include communications satellites like Starlink; space stations such as the ISS; scientific satellites like the Hubble; Earth observation satellites from companies like Planet Labs, Umbra, and HawkEye 360; GPS; miniature CubeSats for education and research; and military/defense satellites.

Loading next visibility...
Identifier
42811, 2017-039J
Orbit
LEO
Country
Flag of USUS
Related business
Manufacturer
OATK SSG Gilbert
Mission
Operational Commercial Communications
Bus & Motor
ELITEBUS, Unknown motor
Mass
860 kg wet, 700 kg dry
Launch date (UTC)
2017-06-25 (8 years ago)
Launch vehicle
FALCON 9
Launch site
Air Force Western Test Range (AFWTR)
Object type
Payload
Rocket body
Debris
Shape & HBR
Trap Box + 2 Pan, 4.7 m
Radar Cross Section
14.423 m², Large (>1 m²)

Expand to show TLE details & history
Last TLE update: 9 hours ago

TLE from 9 hours ago
0 IRIDIUM 128
1 42811U 17039J   25261.11192970  .00000014  00000-0 -19120-5 0  9996
2 42811  86.3997 138.9162 0002268  77.5575 282.5874 14.34217756430984
Epoch: 2025-09-18T02:41Z
TLE epoch observation values (Epoch: 2025-09-18T02:41:10.726Z)
Latitude
-0.00005°
Longitude
101.3433°
Altitude
780.365 km
Speed
7.464 km/s
True Right ascension
09h 15m 39s
True Declination
0° 00' 00"
Sunlit
Object was in daylight at epoch
Visualization orbit readout
Latitude
Unknown
Longitude
Unknown
Altitude
Unknown
Speed
Unknown
Apparent Right ascension
Unknown
Apparent Declination
Unknown
Sunlit
N/A
Visualization observer readout
Local Sidereal Time
04:20:06
Azimuth
Unknown
Elevation
Unknown
Doppler factor
Unknown
Orbital elements
Apogee altitude
776.254 km
Perigee altitude
773.009 km
Semi-major axis
7,152.769 km
Eccentricity
0.00023
Inclination
86.3997°
RAAN
138.9162°
Arg. of periapsis
77.5575°
True anomaly
282.56203°
Mean anomaly
282.5874°
Eccentric anomaly
282.57472°
Mean motion
3.58783 °/min
Orbital period
100.34 mins
BSTAR
-0.000001912
Loading maneuver chart data...
Computing Atmospheric mass density...
Loading historical data...
Loading historical data...
Loading historical data...
Loading historical data...
Loading historical data...
Loading historical data...
Loading historical data...

Documentation

Showing up to 5 results
|